Temp
-17 -18 -18 -18 -19 -19 -19 -19 -19 -22 -23 -22 -22 -22 -23 -22 -22 -22 -21 -21 -21 -21 -20 -19 -19 -18 -19 -19 -15 -14 -14 -14 -14 -13 -12 -12 -11 -13 -12 -12 -11 -12 -11 -12
-18 -18 -18 -19 -19 -19 -21 -20 -20 -21 -22 -23 -22 -23 -24 -23 -23 -23 -22 -21 -22 -22 -21 -21 -20 -19 -19 -19 -18 -15 -14 -14 -14 -14 -13 -12 -13 -13 -13 -12 -12 -12 -11 -11
-18 -18 -19 -19 -19 -20 -21 -21 -21 -21 -22 -23 -23 -24 -24 -23 -22 -23 -23 -23 -23 -23 -22 -22 -22 -22 -21 -19 -19 -15 -15 -14 -14 -14 -13 -13 -13 -13 -13 -13 -12 -12 -12 -12
-17 -18 -19 -20 -20 -21 -21 -22 -22 -23 -23 -24 -24 -26 -24 -24 -24 -24 -24 -23 -24 -24 -23 -23 -24 -24 -23 -22 -20 -16 -15 -14 -14 -14 -14 -13 -14 -13 -12 -14 -13 -13 -12 -12
-17 -18 -19 -20 -20 -21 -22 -23 -23 -24 -24 -25 -26 -26 -26 -25 -26 -25 -24 -24 -25 -24 -24 -24 -24 -25 -25 -23 -20 -19 -16 -15 -15 -15 -15 -14 -14 -14 -14 -14 -13 -13 -13 -12
-17 -18 -19 -20 -21 -21 -23 -24 -24 -25 -26 -26 -27 -26 -26 -26 -26 -26 -25 -25 -25 -24 -24 -24 -24 -24 -24 -23 -21 -20 -17 -16 -16 -15 -15 -14 -14 -13 -13 -13 -13 -13 -13 -13
-18 -18 -19 -20 -21 -22 -23 -24 -25 -26 -26 -26 -27 -27 -26 -25 -25 -26 -25 -25 -24 -24 -25 -25 -25 -25 -24 -23 -22 -21 -19 -17 -16 -15 -15 -15 -14 -13 -13 -14 -14 -13 -13 -13
-18 -18 -20 -20 -21 -23 -24 -24 -25 -26 -26 -27 -27 -26 -26 -25 -25 -26 -26 -25 -25 -25 -25 -26 -25 -25 -25 -22 -21 -21 -19 -18 -17 -16 -16 -15 -14 -14 -14 -13 -13 -13 -13 -14
-18 -19 -20 -21 -22 -23 -24 -26 -26 -27 -27 -27 -27 -27 -26 -26 -26 -26 -26 -26 -26 -26 -26 -27 -26 -26 -25 -22 -21 -20 -19 -19 -18 -17 -16 -15 -14 -14 -14 -13 -13 -13 -13 -14
-19 -19 -20 -21 -22 -24 -25 -26 -27 -27 -27 -27 -27 -27 -27 -27 -27 -26 -26 -27 -26 -26 -26 -26 -26 -25 -23 -21 -20 -19 -19 -18 -16 -17 -16 -15 -14 -14 -14 -14 -14 -14 -14 -14
-19 -20 -20 -21 -22 -24 -25 -26 -27 -27 -27 -27 -26 -27 -26 -26 -26 -27 -27 -27 -27 -26 -26 -25 -23 -23 -21 -20 -19 -19 -18 -17 -16 -16 -16 -15 -15 -15 -14 -14 -14 -14 -14 -14
-19 -20 -20 -21 -21 -23 -25 -26 -27 -27 -27 -27 -26 -27 -26 -26 -27 -27 -27 -27 -26 -25 -25 -22 -23 -21 -19 -18 -19 -18 -17 -18 -17 -17 -16 -15 -15 -15 -15 -15 -15 -15 -15 -15
-19 -19 -20 -20 -21 -23 -23 -24 -26 -27 -27 -26 -26 -27 -27 -27 -27 -27 -26 -26 -25 -24 -23 -21 -21 -20 -19 -18 -18 -18 -18 -18 -17 -17 -17 -16 -16 -15 -15 -16 -15 -15 -15 -15
-18 -19 -20 -21 -21 -21 -23 -23 -23 -24 -25 -26 -26 -26 -26 -26 -26 -27 -26 -25 -25 -22 -21 -21 -20 -19 -17 -17 -17 -17 -18 -17 -17 -17 -16 -16 -15 -15 -16 -16 -16 -16 -16 -15
-18 -19 -20 -20 -20 -20 -21 -22 -22 -23 -24 -24 -24 -24 -25 -24 -24 -24 -24 -23 -22 -22 -20 -20 -19 -18 -18 -18 -18 -18 -18 -18 -17 -17 -16 -15 -16 -15 -16 -16 -16 -16 -16 -16
-18 -19 -19 -20 -20 -20 -20 -21 -22 -22 -23 -23 -23 -23 -23 -24 -24 -22 -22 -21 -21 -21 -20 -20 -19 -18 -19 -19 -19 -18 -18 -17 -17 -16 -16 -16 -16 -16 -15 -15 -16 -16 -16 -17
-18 -18 -18 -19 -20 -20 -20 -20 -20 -21 -22 -22 -22 -21 -22 -22 -22 -22 -21 -21 -20 -20 -20 -19 -19 -18 -19 -19 -18 -18 -18 -17 -17 -17 -16 -16 -16 -16 -16 -17 -17 -17 -17 -18
-18 -18 -18 -18 -19 -19 -20 -20 -20 -20 -21 -21 -22 -22 -22 -21 -21 -21 -21 -20 -20 -19 -19 -19 -18 -18 -19 -18 -18 -17 -17 -17 -17 -17 -17 -17 -18 -18 -18 -18 -18 -18 -18 -18
-18 -18 -18 -18 -18 -19 -19 -20 -20 -20 -19 -20 -21 -21 -21 -21 -21 -21 -21 -21 -20 -19 -19 -19 -19 -19 -19 -18 -18 -18 -18 -18 -18 -18 -18 -18 -19 -19 -19 -18 -18 -19 -19 -19
-18 -18 -18 -18 -18 -19 -19 -19 -20 -20 -20 -20 -20 -20 -20 -21 -20 -20 -20 -20 -20 -20 -19 -19 -19 -20 -19 -20 -20 -19 -19 -19 -18 -19 -18 -19 -19 -19 -19 -20 -20 -20 -20 -20
-18 -18 -18 -18 -18 -18 -19 -20 -20 -20 -20 -20 -20 -20 -20 -20 -20 -19 -19 -20 -19 -19 -19 -19 -19 -19 -19 -19 -19 -19 -19 -18 -19 -19 -19 -20 -20 -20 -20 -20 -20 -20 -20 -20
-18 -18 -18 -18 -18 -18 -18 -19 -20 -20 -20 -20 -20 -20 -20 -20 -19 -19 -19 -19 -19 -19 -19 -19 -18 -18 -19 -19 -19 -19 -19 -20 -20 -20 -20 -20 -20 -20 -20 -20 -20 -20 -20 -20
-18 -18 -19 -19 -19 -18 -18 -18 -19 -20 -20 -20 -21 -20 -20 -20 -20 -20 -20 -19 -19 -19 -19 -19 -19 -20 -20 -20 -20 -20 -20 -20 -20 -20 -20 -20 -20 -20 -21 -21 -21 -20 -20 -20
-18 -18 -18 -19 -19 -19 -18 -18 -18 -19 -19 -20 -20 -20 -20 -20 -20 -20 -20 -20 -20 -20 -19 -20 -20 -20 -20 -20 -20 -20 -20 -20 -20 -20 -20 -20 -20 -20 -20 -20 -20 -20 -20 -20
-17 -17 -18 -19 -19 -19 -19 -18 -18 -18 -18 -18 -18 -19 -19 -19 -19 -19 -19 -19 -19 -19 -19 -19 -19 -19 -19 -19 -20 -20 -20 -20 -20 -20 -20 -20 -20 -20 -20 -20 -20 -21 -21 -21
-17 -17 -18 -18 -19 -19 -19 -18 -18 -18 -18 -18 -18 -19 -19 -19 -19 -19 -19 -19 -19 -19 -19 -19 -19 -19 -19 -20 -20 -20 -20 -20 -20 -20 -20 -20 -20 -20 -20 -20 -20 -20 -20 -20
Height
5590 5580 5571 5562 5554 5546 5538 5530 5524 5520 5515 5509 5509 5511 5510 5508 5510 5511 5514 5517 5520 5521 5524 5531 5541 5549 5558 5569 5582 5595 5611 5623 5634 5646 5656 5666 5673 5674 5679 5688 5680 5699 5704 5705
5589 5579 5568 5558 5547 5537 5529 5520 5512 5507 5502 5499 5497 5499 5498 5497 5498 5501 5502 5504 5507 5508 5510 5514 5521 5531 5541 5554 5567 5582 5598 5611 5625 5637 5647 5657 5664 5671 5676 5681 5684 5693 5690 5696
5588 5577 5564 5551 5541 5530 5519 5508 5500 5493 5490 5488 5488 5489 5489 5487 5488 5492 5494 5496 5497 5497 5498 5501 5506 5514 5524 5537 5551 5567 5584 5599 5615 5628 5639 5648 5657 5665 5670 5676 5678 5685 5689 5687
5586 5573 5560 5547 5536 5524 5513 5500 5488 5480 5476 5477 5477 5481 5477 5480 5481 5485 5487 5490 5491 5490 5491 5491 5494 5501 5510 5522 5539 5556 5572 5591 5607 5622 5632 5639 5651 5657 5664 5667 5672 5674 5677 5681
5585 5572 5560 5545 5533 5520 5507 5495 5484 5475 5472 5472 5472 5474 5473 5475 5479 5480 5483 5485 5484 5484 5486 5488 5491 5497 5503 5514 5532 5545 5563 5582 5598 5613 5622 5633 5643 5651 5655 5664 5666 5667 5668 5673
5583 5571 5558 5545 5529 5517 5501 5491 5482 5476 5474 5474 5474 5474 5475 5476 5478 5477 5479 5478 5479 5479 5481 5484 5487 5494 5501 5511 5525 5538 5553 5576 5591 5606 5614 5630 5639 5646 5650 5655 5655 5659 5661 5661
5585 5571 5557 5545 5535 5515 5503 5490 5481 5477 5475 5476 5476 5476 5474 5475 5476 5476 5476 5474 5475 5475 5475 5478 5483 5489 5496 5506 5517 5535 5552 5574 5587 5601 5614 5626 5634 5643 5648 5653 5656 5654 5653 5653
5584 5571 5560 5544 5526 5509 5498 5488 5482 5477 5477 5477 5477 5475 5475 5473 5473 5472 5470 5470 5471 5472 5474 5477 5481 5486 5493 5509 5525 5541 5558 5573 5587 5600 5614 5623 5632 5641 5644 5649 5649 5649 5649 5649
5587 5575 5562 5546 5528 5515 5502 5489 5484 5480 5479 5479 5479 5478 5476 5474 5470 5468 5468 5469 5470 5469 5472 5477 5481 5488 5498 5513 5534 5548 5565 5578 5591 5601 5610 5620 5629 5635 5641 5643 5643 5642 5643 5644
5592 5580 5566 5552 5536 5521 5508 5497 5490 5485 5484 5483 5483 5481 5478 5477 5476 5473 5470 5469 5469 5470 5474 5478 5485 5495 5507 5527 5542 5557 5572 5586 5593 5600 5608 5619 5625 5632 5636 5636 5636 5637 5638 5640
5596 5584 5573 5554 5539 5529 5520 5507 5498 5493 5490 5489 5486 5486 5483 5481 5477 5474 5473 5473 5473 5475 5478 5483 5492 5503 5519 5534 5548 5566 5579 5589 5593 5597 5606 5616 5623 5628 5630 5631 5631 5632 5632 5633
5601 5591 5575 5562 5549 5538 5526 5515 5507 5503 5501 5496 5493 5492 5487 5482 5480 5479 5478 5478 5480 5482 5486 5488 5496 5508 5526 5542 5560 5575 5584 5592 5590 5597 5605 5614 5621 5626 5628 5626 5630 5629 5629 5628
5607 5595 5584 5572 5560 5551 5542 5528 5518 5514 5510 5504 5499 5496 5493 5489 5487 5486 5483 5484 5487 5490 5492 5501 5504 5526 5538 5560 5573 5582 5586 5594 5594 5602 5608 5614 5619 5624 5624 5628 5630 5628 5629 5629
5613 5602 5593 5583 5571 5562 5553 5545 5536 5528 5520 5514 5506 5505 5502 5498 5495 5491 5492 5492 5494 5501 5509 5514 5528 5540 5556 5566 5576 5582 5591 5590 5597 5605 5609 5615 5620 5621 5620 5623 5625 5625 5625 5626
5619 5610 5602 5594 5584 5574 5568 5561 5552 5545 5539 5532 5527 5520 5512 5510 5507 5504 5504 5505 5508 5510 5522 5526 5546 5553 5562 5570 5574 5582 5586 5595 5600 5605 5610 5614 5618 5620 5620 5623 5625 5624 5624 5622
5625 5618 5610 5603 5595 5586 5578 5574 5568 5559 5549 5545 5538 5530 5525 5518 5516 5515 5513 5511 5518 5520 5535 5547 5560 5564 5568 5576 5582 5588 5592 5599 5603 5607 5611 5613 5615 5617 5620 5620 5620 5618 5618 5616
5631 5624 5617 5610 5605 5597 5592 5583 5577 5574 5562 5553 5549 5543 5536 5529 5527 5525 5525 5527 5531 5539 5550 5559 5569 5578 5581 5583 5586 5592 5597 5601 5603 5605 5608 5611 5614 5616 5616 5616 5615 5614 5613 5612
5637 5629 5622 5616 5611 5601 5598 5595 5589 5584 5580 5569 5563 5559 5554 5548 5546 5545 5547 5548 5552 5558 5564 5572 5579 5584 5589 5590 5592 5597 5600 5601 5603 5604 5606 5609 5611 5612 5611 5612 5611 5611 5610 5609
5641 5635 5628 5621 5615 5611 5604 5601 5599 5593 5588 5581 5575 5570 5568 5566 5562 5562 5563 5565 5567 5571 5576 5582 5585 5588 5592 5595 5596 5597 5600 5602 5604 5606 5606 5607 5610 5610 5610 5610 5611 5611 5609 5608
5644 5639 5634 5627 5621 5615 5610 5605 5601 5600 5596 5590 5586 5582 5578 5577 5575 5575 5575 5577 5579 5582 5584 5587 5590 5592 5594 5597 5600 5602 5604 5605 5606 5607 5608 5609 5607 5608 5611 5611 5610 5610 5609 5605
5645 5642 5637 5632 5627 5621 5615 5610 5606 5603 5604 5598 5595 5592 5589 5588 5589 5587 5586 5586 5588 5589 5591 5593 5595 5597 5599 5601 5604 5604 5605 5607 5608 5609 5609 5609 5611 5612 5611 5610 5609 5607 5604 5600
5646 5643 5639 5635 5631 5627 5620 5615 5610 5606 5602 5601 5600 5599 5597 5595 5596 5597 5596 5596 5596 5597 5598 5600 5601 5602 5603 5605 5606 5606 5606 5607 5609 5611 5611 5612 5611 5609 5607 5605 5603 5600 5596 5593
5645 5643 5640 5637 5634 5630 5624 5618 5613 5608 5605 5604 5603 5602 5601 5600 5601 5601 5601 5601 5602 5603 5603 5604 5604 5605 5606 5608 5609 5609 5608 5609 5610 5611 5611 5611 5610 5608 5604 5600 5596 5592 5587 5584
5643 5640 5638 5635 5633 5629 5626 5622 5617 5613 5609 5607 5606 5604 5604 5604 5605 5606 5606 5606 5606 5607 5608 5609 5610 5611 5611 5612 5612 5612 5611 5611 5610 5609 5608 5606 5603 5601 5598 5595 5590 5585 5577 5570
5642 5639 5637 5633 5631 5629 5627 5625 5622 5620 5617 5615 5612 5610 5609 5609 5609 5610 5611 5612 5613 5614 5614 5614 5614 5615 5615 5614 5614 5614 5613 5613 5612 5611 5608 5603 5599 5595 5590 5584 5578 5573 5569 5563
5640 5638 5636 5633 5630 5630 5629 5627 5626 5624 5623 5621 5619 5618 5617 5616 5616 5617 5617 5618 5618 5618 5618 5617 5618 5618 5617 5617 5617 5616 5614 5612 5610 5606 5601 5596 5590 5585 5579 5574 5570 5564 5558 5550
Wind_Speed
39 38 38 37 37 36 37 38 36 29 27 33 33 30 30 36 36 37 36 37 40 47 54 62 64 66 64 65 83 84 80 74 69 65 64 60 62 63 46 51 46 53 51 52
40 37 38 39 40 41 38 38 39 35 33 34 35 30 32 36 36 34 35 35 35 40 47 55 64 74 77 72 76 86 83 78 72 66 64 62 59 58 60 51 51 51 45 51
42 44 43 43 43 42 35 38 38 39 37 36 33 31 28 35 36 31 30 30 31 35 38 46 49 57 69 76 76 88 86 82 75 68 65 64 65 66 56 59 53 62 54 58
44 47 44 41 41 37 37 38 38 30 28 25 22 12 26 24 30 25 22 22 24 25 25 26 36 47 57 63 75 86 88 83 77 69 70 65 61 63 61 52 43 33 58 59
45 48 43 44 44 41 44 36 32 21 9 4 3 5 15 19 18 20 21 19 19 22 24 20 20 28 35 55 72 75 86 83 78 72 73 69 60 51 56 47 32 27 33 59
44 45 45 47 43 46 46 37 24 16 7 8 6 5 8 11 7 14 19 19 15 20 23 27 27 28 27 41 63 64 78 76 67 68 74 58 54 51 55 62 51 53 47 41
42 42 45 47 43 46 42 37 16 7 5 5 2 3 2 4 8 11 13 18 18 19 21 24 24 24 30 41 55 54 60 68 69 65 64 55 58 48 50 47 48 47 36 37
46 44 48 47 55 51 41 38 14 5 5 9 4 9 4 5 11 14 16 10 10 10 13 16 18 20 28 39 46 41 47 63 59 60 58 55 46 41 41 42 37 43 35 24
46 45 47 50 55 51 46 35 20 9 13 15 9 6 7 13 17 19 9 9 10 9 10 11 14 17 25 33 33 37 47 45 47 48 53 49 51 39 41 43 39 24 25 23
50 51 49 54 52 47 49 38 26 17 18 18 15 12 12 11 6 8 6 2 7 16 22 26 33 39 41 32 33 42 41 34 24 40 48 42 41 40 36 18 17 27 30 25
53 56 53 58 53 47 45 42 29 21 19 20 21 17 15 12 14 14 12 15 22 29 35 45 54 53 47 35 37 45 40 25 25 28 36 44 44 29 27 22 19 19 16 27
55 56 60 57 53 47 46 45 37 24 22 22 22 18 14 12 11 13 15 20 33 44 49 53 59 41 51 37 40 39 33 34 17 22 26 32 33 26 3 4 2 1 10 21
53 57 59 58 50 44 48 48 42 32 18 17 15 12 10 10 10 14 24 34 44 49 61 59 36 36 46 43 35 29 25 16 13 15 19 32 35 37 31 22 14 10 6 6
53 54 54 55 51 51 41 45 46 40 31 22 17 15 14 16 21 24 32 38 46 60 44 37 46 51 54 37 36 33 21 22 18 11 5 9 18 27 27 17 20 26 32 25
49 51 49 49 51 50 48 43 42 41 38 33 33 27 32 36 32 24 23 29 40 38 53 48 47 48 35 32 26 20 16 17 13 7 1 7 7 9 13 19 25 28 33 38
44 47 47 45 45 50 45 39 41 36 31 35 32 29 25 26 23 30 29 33 43 41 42 43 51 32 21 12 7 12 12 11 9 4 4 1 4 5 11 17 18 21 24 24
40 45 46 44 42 42 47 40 36 42 37 37 39 36 33 37 31 41 44 38 35 37 36 46 39 31 21 23 14 11 4 1 2 2 1 3 7 9 11 16 20 21 23 20
35 39 43 44 42 46 41 42 35 34 35 36 43 43 43 43 43 45 48 49 48 46 40 34 40 28 23 15 10 10 6 3 2 3 7 10 11 11 12 14 15 16 16 16
29 33 38 41 40 39 38 36 36 35 28 29 32 35 35 34 34 38 36 35 34 35 30 27 26 19 17 14 10 6 4 1 4 7 9 12 13 13 11 10 9 9 10 12
23 27 31 36 38 38 36 33 31 31 33 30 28 27 30 30 29 28 29 27 24 21 20 17 16 12 12 16 15 13 14 12 13 16 16 14 13 11 8 9 10 10 12 17
21 22 26 29 33 35 35 31 26 25 26 28 29 29 28 26 23 19 23 25 25 22 20 19 19 20 22 20 15 18 17 16 16 13 14 15 14 13 14 15 17 19 21 24
22 22 21 23 27 29 33 31 24 20 21 22 24 25 25 29 27 25 23 23 23 23 22 20 21 23 21 19 15 15 16 21 20 18 15 14 14 16 19 21 24 27 30 32
22 23 22 20 22 22 24 26 23 19 16 15 15 19 22 22 20 20 21 22 22 21 20 19 20 20 22 23 23 21 21 17 14 14 16 17 19 21 23 27 29 32 36 39
22 24 25 23 22 14 16 19 18 18 17 14 13 14 15 16 16 17 18 19 21 24 28 30 28 24 22 20 19 19 20 19 20 20 21 23 24 25 27 30 33 37 42 48
21 21 23 24 17 10 12 14 13 15 19 23 25 26 25 26 26 27 28 28 27 25 24 24 22 20 19 18 18 18 18 18 19 21 23 25 27 31 35 39 43 47 51 54
20 19 21 23 7 4 8 10 9 10 14 18 20 21 23 23 23 23 22 20 19 19 18 18 17 15 15 15 16 19 21 24 26 26 28 31 36 41 44 48 51 55 58 61
Wind_Direction
345 345 341 335 331 325 317 310 305 296 285 283 278 277 275 266 262 260 259 253 255 252 247 242 239 231 231 228 214 218 220 221 219 221 223 226 228 235 237 224 251 224 234 248
349 347 341 336 329 329 323 313 304 291 283 275 277 276 269 270 268 269 268 263 267 264 251 243 239 233 230 226 218 213 217 219 218 219 222 225 227 229 234 232 238 230 238 246
348 346 340 339 342 339 336 326 312 292 283 276 272 273 264 264 265 270 265 270 273 265 251 247 242 235 228 221 217 210 213 216 217 217 220 224 223 232 234 243 242 231 235 240
352 349 349 344 350 341 343 344 327 302 278 275 261 239 262 257 258 256 261 269 275 253 242 247 236 229 227 221 212 209 210 213 215 214 219 223 225 230 231 245 263 250 232 233
352 352 353 351 350 351 346 344 348 332 315 282 319 231 241 238 248 263 262 269 265 247 233 229 221 215 210 215 209 211 208 210 213 214 218 220 226 229 235 244 231 249 246 239
353 356 354 356 351 351 350 351 348 346 36 70 109 132 272 237 251 267 265 259 251 251 236 231 231 223 223 208 207 212 208 207 211 215 218 220 226 231 235 230 243 265 272 259
359 5 358 353 351 352 351 353 353 27 141 201 87 31 351 234 224 246 276 279 255 263 240 221 224 227 212 204 208 211 208 203 211 215 217 222 228 230 240 245 262 264 265 250
9 7 0 356 355 359 2 6 27 65 109 91 117 41 10 310 289 306 266 260 249 232 232 224 224 207 190 196 207 208 195 203 207 215 214 219 224 228 236 237 250 259 249 253
15 12 8 9 3 5 6 14 33 56 88 62 81 45 1 354 350 357 345 239 244 210 189 175 159 150 141 172 188 181 188 203 204 214 211 216 222 232 236 254 245 248 240 252
19 17 14 17 17 14 16 20 35 69 75 80 70 63 50 67 87 72 62 99 145 130 131 134 131 124 122 134 140 180 180 168 186 202 216 209 213 213 225 244 231 242 238 245
21 23 23 25 27 25 21 29 35 55 71 84 87 77 84 76 62 71 116 134 133 128 129 129 120 120 123 132 157 167 151 150 193 196 203 213 220 230 224 237 269 273 275 244
22 24 29 34 38 32 29 30 39 62 59 79 78 87 77 85 90 95 124 132 127 126 129 129 132 118 128 149 161 160 139 186 197 222 214 201 206 202 142 75 235 206 226 218
21 23 31 34 40 35 48 43 34 48 56 58 55 84 82 82 85 116 132 129 127 126 130 117 129 132 117 136 145 168 190 183 151 192 203 224 232 227 232 271 282 288 293 254
19 24 28 38 40 38 41 52 54 52 51 57 69 76 81 108 118 133 130 125 128 119 106 111 115 126 132 137 135 122 123 114 124 134 163 240 257 275 295 310 269 304 291 292
21 23 27 34 43 47 47 53 59 61 60 55 57 88 115 102 105 82 91 102 111 109 114 122 123 136 129 123 111 91 88 73 70 112 191 275 303 301 286 283 290 300 300 307
22 25 27 33 38 49 52 47 51 49 53 56 62 68 53 47 59 70 81 106 108 112 124 116 133 157 147 103 151 144 140 87 82 98 117 250 268 255 279 278 289 299 308 314
21 25 28 31 36 46 53 54 50 52 46 50 60 71 65 66 73 78 88 97 105 116 120 130 145 131 149 154 152 166 148 199 88 78 21 299 281 291 304 303 308 315 320 329
17 24 25 26 26 34 45 57 60 52 55 50 61 67 66 65 75 80 86 92 98 108 107 110 118 125 129 134 141 146 165 189 253 305 309 315 318 329 345 348 342 337 338 337
13 21 23 23 22 28 32 43 54 59 59 57 57 53 60 65 70 78 82 89 93 104 111 119 126 126 126 132 139 148 148 96 31 27 26 23 20 29 30 13 356 344 340 338
7 16 21 19 19 20 26 27 36 49 63 66 63 64 58 53 56 65 67 71 79 94 114 115 105 92 88 83 80 86 75 61 51 50 47 45 35 32 31 33 27 2 342 335
359 6 14 19 15 15 16 21 25 37 51 68 74 74 73 72 70 61 65 70 76 80 80 80 85 86 77 66 57 61 64 68 66 61 57 55 52 36 17 3 351 341 336 332
345 346 352 3 8 7 6 13 21 28 36 49 64 74 80 83 83 83 79 75 74 74 75 73 75 80 84 85 78 82 80 75 70 65 53 36 16 5 357 351 343 337 332 327
338 340 337 342 356 356 355 7 19 26 35 41 55 70 77 81 85 90 94 98 101 102 100 93 88 86 87 85 81 70 68 66 51 34 19 6 357 350 343 337 333 330 330 329
324 327 325 328 340 338 355 14 27 41 47 55 68 76 83 89 95 98 97 96 95 95 94 93 88 83 80 74 63 51 42 31 19 8 356 347 343 338 333 329 330 331 332 331
341 339 334 329 343 342 357 29 47 61 76 80 83 87 91 93 93 94 95 95 94 90 86 82 76 69 63 54 44 33 21 8 355 345 339 336 335 334 333 332 331 329 327 325
338 328 336 342 353 4 12 41 60 75 86 90 94 92 95 97 97 98 97 92 89 86 80 74 69 60 47 33 18 7 359 350 341 332 331 330 330 330 330 329 327 326 325 324